Location: Atherton
(17.2661°S, 145.4859°E)
Time: 11:37:02
(UTC+10:00)

Vanguard 1 - Pass Details

Date: 29 June 2025
Orbit: 649 x 3822 km, 34.2° (Epoch: 05 July)

Event Time Altitude Azimuth Distance (km) Brightness Sun altitude
Rises 14:56:34 0° 322° (NW) 7,563 15.6 34.6°
Reaches altitude 10° 15:01:42 10° 326° (NNW) 6,745 15.7 33.7°
Maximum altitude 15:24:12 54° 38° (NE) 4,120 13.6 29.8°
Drops below altitude 10° 15:41:51 10° 109° (ESE) 5,514 13.4 26.5°
Sets 15:45:28 0° 113° (ESE) 6,178 13.6 25.8°
